Knoxville, TN

1:56 AM EST on January 21, 2018 (GMT -0500)
McGhee Tyson

Weather History for KTYS - November, 2011

Change the Weather History Date:

Tuesday, November 8, 2011

  Actual Average Record
Temperature  
Mean Temperature 55 °F 52 °F  
Max Temperature 71 °F 64 °F 81 °F (1986)
Min Temperature 38 °F 41 °F 23 °F (1952)
Degree Days  
Heating Degree Days 10 13  
Month to date heating degree days 117 94  
Since 1 July heating degree days 355 313  
Cooling Degree Days 0 0  
Month to date cooling degree days 0 0  
Year to date cooling degree days 1864 1523  
Growing Degree Days 4 (Base 50)    
Moisture  
Dew Point 43 °F    
Average Humidity 74    
Maximum Humidity 100    
Minimum Humidity 47    
Precipitation  
Precipitation 0.00 in 0.12 in 2.29 in (1889)
Month to date precipitation 0.76 0.92  
Year to date precipitation 45.41 40.27  
Snow  
Snow 0.00 in 0.00 in - ()
Month to date snowfall 0.0 0.0  
Since 1 July snowfall 0.0 0.0  
Since 1 September snowfall 0.0 0.0  
Snow Depth 0.00 in    
Sea Level Pressure  
Sea Level Pressure 30.22 in    
Wind  
Wind Speed 2 mph (NE)    
Max Wind Speed 8 mph    
Max Gust Speed 10 mph    
Visibility 6 miles    
Events Fog    
T = Trace of Precipitation, MM = Missing Value Source: NWS Daily Summary

Daily Weather History Graph

Daily Weather History Graph

Search for Another Location

Airport or City:

Trip Planner

Search our weather history database for the weather conditions in past years. The results will help you decide how hot, cold, wet, or windy it might be!

Date:

Astronomy

Nov. 08, 2011 Rise Set
Actual Time 7:04 AM EST 5:34 PM EST
Civil Twilight 6:37 AM EST 6:00 PM EST
Nautical Twilight 6:07 AM EST 6:31 PM EST
Astronomical Twilight 5:37 AM EST 7:01 PM EST
Moon 4:12 PM EST (11/8) 5:05 AM EST (11/8)
Length of Visible Light 11h 22m
Length of Day
10h 29m
Waxing Gibbous, 96% of the Moon is Illuminated
Nov 8
Waxing Gibbous
Nov 10
Full
Nov 18
Last Quarter
Nov 25
New
Dec 2
First Quarter

Hourly Weather History & Observations

Time (EST) Temp. Windchill Dew Point Humidity Pressure Visibility Wind Dir Wind Speed Gust Speed Precip Events Conditions
12:53 AM 45.0 °F - 44.1 °F 97% 30.25 in 10.0 mi Calm Calm - N/A   Clear
1:53 AM 44.1 °F - 42.1 °F 93% 30.23 in 10.0 mi Calm Calm - N/A   Clear
2:53 AM 45.0 °F - 42.1 °F 90% 30.25 in 10.0 mi Calm Calm - N/A   Clear
3:53 AM 42.1 °F - 41.0 °F 96% 30.24 in 7.0 mi Calm Calm - N/A   Clear
4:13 AM 42.8 °F - 42.8 °F 100% 30.25 in 3.0 mi Calm Calm - N/A   Scattered Clouds
4:22 AM 42.8 °F - 42.8 °F 100% 30.25 in 2.0 mi Calm Calm - N/A   Mostly Cloudy
4:44 AM 42.8 °F - 42.8 °F 100% 30.26 in 3.0 mi Calm Calm - N/A   Scattered Clouds
4:53 AM 42.1 °F - 42.1 °F 100% 30.26 in 3.0 mi Calm Calm - N/A   Scattered Clouds
5:53 AM 39.9 °F - 39.0 °F 97% 30.27 in 2.5 mi Calm Calm - N/A   Scattered Clouds
6:04 AM 39.2 °F - 37.4 °F 93% 30.26 in 4.0 mi Calm Calm - N/A   Scattered Clouds
6:33 AM 39.2 °F 35.9 °F 37.4 °F 93% 30.27 in 0.5 mi NE 4.6 mph - N/A   Mostly Cloudy
6:44 AM 39.2 °F 37.0 °F 39.2 °F 100% 30.27 in 0.5 mi NNE 3.5 mph - N/A Fog Fog
6:53 AM 39.9 °F 36.7 °F 39.9 °F 100% 30.27 in 0.5 mi NE 4.6 mph - N/A Fog Fog
6:57 AM 39.2 °F 37.0 °F 39.2 °F 100% 30.27 in 0.5 mi NE 3.5 mph - N/A   Scattered Clouds
7:04 AM 39.2 °F - 39.2 °F 100% 30.27 in 4.0 mi Calm Calm - N/A   Scattered Clouds
7:23 AM 39.2 °F 37.0 °F 37.4 °F 93% 30.27 in 2.5 mi ENE 3.5 mph - N/A   Scattered Clouds
7:28 AM 37.4 °F - 37.4 °F 100% 30.27 in 0.8 mi Calm Calm - N/A   Scattered Clouds
7:35 AM 37.4 °F 34.9 °F 37.4 °F 100% 30.27 in 0.5 mi ENE 3.5 mph - N/A Fog Fog
7:44 AM 39.2 °F 35.9 °F 37.4 °F 93% 30.27 in 0.5 mi NE 4.6 mph - N/A Fog Fog
7:53 AM 39.0 °F 35.7 °F 39.0 °F 100% 30.27 in 0.5 mi NE 4.6 mph - N/A Fog Fog
7:57 AM 39.2 °F 35.9 °F 39.2 °F 100% 30.27 in 2.0 mi ENE 4.6 mph - N/A   Scattered Clouds
8:02 AM 41.0 °F 38.0 °F 39.2 °F 93% 30.27 in 3.0 mi ENE 4.6 mph - N/A   Partly Cloudy
8:53 AM 46.0 °F - 45.0 °F 96% 30.27 in 10.0 mi Calm Calm - N/A   Partly Cloudy
9:53 AM 54.0 °F - 48.0 °F 80% 30.26 in 10.0 mi Calm Calm - N/A   Clear
10:53 AM 59.0 °F - 48.9 °F 69% 30.25 in 10.0 mi North 3.5 mph - N/A   Clear
11:53 AM 64.0 °F - 48.0 °F 56% 30.23 in 10.0 mi Calm Calm - N/A   Clear
12:53 PM 66.9 °F - 48.0 °F 51% 30.20 in 10.0 mi WSW 6.9 mph - N/A   Partly Cloudy
1:53 PM 68.0 °F - 48.9 °F 50% 30.17 in 10.0 mi West 3.5 mph - N/A   Partly Cloudy
2:53 PM 69.1 °F - 48.0 °F 47% 30.15 in 10.0 mi WNW 4.6 mph - N/A   Partly Cloudy
3:53 PM 70.0 °F - 48.9 °F 47% 30.13 in 10.0 mi WSW 4.6 mph - N/A   Partly Cloudy
4:53 PM 69.1 °F - 48.0 °F 47% 30.12 in 10.0 mi Calm Calm - N/A   Clear
5:53 PM 63.0 °F - 48.0 °F 58% 30.14 in 10.0 mi Calm Calm - N/A   Partly Cloudy
6:53 PM 60.1 °F - 48.0 °F 64% 30.14 in 10.0 mi ENE 3.5 mph - N/A   Clear
7:53 PM 57.9 °F - 48.0 °F 70% 30.13 in 10.0 mi Calm Calm - N/A   Clear
8:53 PM 57.0 °F - 48.0 °F 72% 30.12 in 10.0 mi Calm Calm - N/A   Clear
9:53 PM 55.9 °F - 46.9 °F 72% 30.12 in 10.0 mi Calm Calm - N/A   Clear
10:53 PM 53.1 °F - 46.9 °F 80% 30.11 in 10.0 mi Calm Calm - N/A   Clear
11:53 PM 52.0 °F - 46.9 °F 83% 30.10 in 10.0 mi Calm Calm - N/A   Clear